Torna al catalogo

STARLINK-36870

AttivoComunicazioniSSO
NORAD 67897·PAYLOAD·🇺🇸 United States

Lanciato Feb 21, 2026 da Vandenberg Space Force Base

Loading…

Prossimi Passaggi (prossime 24 ore)

TLE

AggiornatoSource: CelesTrak SupGP

Epoca: Sep 14, 2026, 22:48 UTC

1 67897C 26035U   26257.95048611 -.00039905  00000+0 -12392-2 0  2572
2 67897  97.2845 189.9028 0001765  94.1909 281.2565 15.33448047    11

Traccia STARLINK-36870 in tempo reale con AllMySat

Download on the App Store